| time (UTC) | temp F | wind direction | speed MPH | gust MPH | rain 1hr in | rain 24hr in | rain mn in | humidity % | barometer mb |
| 20260505183602 | 82 | 254 | 10.0 | 25.0 | 0.00 | 0.06 | 0.06 | 34 | 1009.1 |
| 20260505183102 | 82 | 205 | 11.0 | 25.0 | 0.00 | 0.06 | 0.06 | 35 | 1009.2 |
| 20260505182559 | 82 | 352 | 7.0 | 29.0 | 0.00 | 0.06 | 0.06 | 35 | 1009.2 |
| 20260505182059 | 82 | 221 | 10.0 | 29.0 | 0.00 | 0.06 | 0.06 | 33 | 1009.3 |
| 20260505181600 | 82 | 168 | 12.0 | 26.0 | 0.00 | 0.06 | 0.06 | 35 | 1009.3 |
| 20260505181059 | 82 | 146 | 10.0 | 27.0 | 0.00 | 0.06 | 0.06 | 35 | 1009.4 |
| 20260505180559 | 82 | 199 | 10.0 | 27.0 | 0.00 | 0.06 | 0.06 | 35 | 1009.8 |
| 20260505175559 | 82 | 198 | 13.0 | 25.0 | 0.00 | 0.06 | 0.06 | 37 | 1009.6 |
| 20260505175059 | 82 | 192 | 9.0 | 18.0 | 0.00 | 0.06 | 0.06 | 40 | 1009.5 |
| 20260505174600 | 82 | 214 | 8.0 | 18.0 | 0.00 | 0.06 | 0.06 | 39 | 1009.7 |
| 20260505174059 | 81 | 173 | 10.0 | 18.0 | 0.00 | 0.06 | 0.06 | 40 | 1009.5 |
| 20260505173558 | 81 | 173 | 5.0 | 18.0 | 0.00 | 0.06 | 0.06 | 41 | 1009.5 |
| 20260505173100 | 81 | 236 | 10.0 | 20.0 | 0.00 | 0.06 | 0.06 | 39 | 1009.6 |
| 20260505172559 | 81 | 222 | 8.0 | 20.0 | 0.00 | 0.06 | 0.06 | 40 | 1009.7 |
| 20260505172058 | 81 | 190 | 7.0 | 20.0 | 0.00 | 0.06 | 0.06 | 41 | 1009.6 |
| 20260505171600 | 81 | 298 | 9.0 | 20.0 | 0.00 | 0.06 | 0.06 | 41 | 1009.7 |
| 20260505171100 | 81 | 190 | 6.0 | 16.0 | 0.00 | 0.06 | 0.06 | 42 | 1009.9 |
| 20260505170600 | 81 | 283 | 7.0 | 16.0 | 0.00 | 0.06 | 0.06 | 42 | 1009.9 |
| 20260505165559 | 80 | 202 | 6.0 | 14.0 | 0.00 | 0.06 | 0.06 | 42 | 1010.0 |
| 20260505165059 | 80 | 288 | 5.0 | 14.0 | 0.00 | 0.06 | 0.06 | 44 | 1010.1 |
| 20260505164630 | 80 | 284 | 3.0 | 14.0 | 0.00 | 0.06 | 0.06 | 43 | 1010.3 |
| 20260505164059 | 80 | 301 | 6.0 | 14.0 | 0.00 | 0.06 | 0.06 | 43 | 1010.4 |
| 20260505163558 | 79 | 242 | 4.0 | 13.0 | 0.00 | 0.06 | 0.06 | 43 | 1010.4 |
| 20260505163058 | 79 | 86 | 3.0 | 14.0 | 0.00 | 0.06 | 0.06 | 44 | 1010.5 |
| 20260505162559 | 79 | 189 | 7.0 | 14.0 | 0.00 | 0.06 | 0.06 | 46 | 1010.5 |
| 20260505162058 | 79 | 209 | 2.0 | 20.0 | 0.00 | 0.06 | 0.06 | 44 | 1010.6 |
| 20260505161601 | 79 | 204 | 6.0 | 20.0 | 0.00 | 0.06 | 0.06 | 45 | 1010.5 |
| 20260505161059 | 79 | 182 | 8.0 | 18.0 | 0.00 | 0.06 | 0.06 | 45 | 1010.5 |
| 20260505160600 | 79 | 146 | 5.0 | 15.0 | 0.00 | 0.06 | 0.06 | 47 | 1010.6 |
| 20260505160109 | 78 | 200 | 2.0 | 20.0 | 0.00 | 0.06 | 0.06 | 46 | 1010.7 |
| 20260505153057 | 77 | 238 | 5.0 | 10.0 | 0.00 | 0.06 | 0.06 | 49 | 1011.1 |
| 20260505152558 | 77 | 229 | 3.0 | 10.0 | 0.00 | 0.06 | 0.06 | 49 | 1011.3 |
| 20260505152058 | 76 | 190 | 3.0 | 10.0 | 0.00 | 0.06 | 0.06 | 49 | 1011.1 |
| 20260505151606 | 76 | 173 | 3.0 | 10.0 | 0.00 | 0.06 | 0.06 | 50 | 1011.1 |
| 20260505151059 | 75 | 224 | 2.0 | 10.0 | 0.00 | 0.06 | 0.06 | 51 | 1011.1 |
| 20260505150559 | 75 | 272 | 1.0 | 12.0 | 0.00 | 0.06 | 0.06 | 51 | 1011.3 |
| 20260505140600 | 71 | 308 | 1.0 | 9.0 | 0.00 | 0.06 | 0.06 | 59 | 1011.7 |
| 20260505140114 | 71 | 204 | 3.0 | 9.0 | 0.00 | 0.06 | 0.06 | 59 | 1011.9 |
| 20260505124605 | 62 | 132 | 2.0 | 4.0 | 0.00 | 0.06 | 0.06 | 81 | 1012.0 |
| 20260505124059 | 61 | 109 | 3.0 | 4.0 | 0.00 | 0.06 | 0.06 | 82 | 1012.1 |
| 20260505123559 | 61 | 132 | 2.0 | 4.0 | 0.00 | 0.06 | 0.06 | 85 | 1012.1 |
| 20260505123100 | 61 | 0 | 1.0 | 4.0 | 0.00 | 0.06 | 0.06 | 84 | 1012.1 |
| 20260505122559 | 60 | 170 | 0.0 | 2.0 | 0.00 | 0.06 | 0.06 | 86 | 1012.0 |
| 20260505122059 | 59 | 0 | 0.0 | 2.0 | 0.00 | 0.06 | 0.06 | 90 | 1012.0 |
| 20260505121600 | 58 | 0 | 0.0 | 1.0 | 0.00 | 0.06 | 0.06 | 91 | 1012.0 |
| 20260505121058 | 57 | 0 | 0.0 | 0.0 | 0.00 | 0.06 | 0.06 | 91 | 1012.0 |
| 20260505120559 | 57 | 0 | 0.0 | 2.0 | 0.00 | 0.06 | 0.06 | 91 | 1012.0 |
| 20260505120113 | 56 | 0 | 0.0 | 2.0 | 0.00 | 0.06 | 0.06 | 92 | 1011.9 |
| 20260505115559 | 56 | 0 | 0.0 | 2.0 | 0.00 | 0.06 | 0.06 | 93 | 1012.0 |
| 20260505115100 | 55 | 182 | 1.0 | 2.0 | 0.00 | 0.06 | 0.06 | 94 | 1011.9 |
| 20260505114601 | 54 | 182 | 0.0 | 2.0 | 0.00 | 0.06 | 0.06 | 95 | 1011.8 |
| 20260505114059 | 54 | 182 | 1.0 | 2.0 | 0.00 | 0.06 | 0.06 | 95 | 1011.8 |
| 20260505113600 | 54 | 182 | 1.0 | 3.0 | 0.00 | 0.06 | 0.06 | 95 | 1011.9 |
| 20260505113058 | 53 | 182 | 1.0 | 3.0 | 0.00 | 0.06 | 0.06 | 95 | 1011.9 |
| 20260505112558 | 53 | 182 | 1.0 | 3.0 | 0.00 | 0.06 | 0.06 | 95 | 1011.9 |
| 20260505112059 | 53 | 182 | 2.0 | 3.0 | 0.00 | 0.06 | 0.06 | 95 | 1011.9 |
| 20260505111601 | 53 | 148 | 0.0 | 2.0 | 0.00 | 0.06 | 0.06 | 96 | 1011.9 |
| 20260505111100 | 52 | 227 | 0.0 | 2.0 | 0.00 | 0.06 | 0.06 | 96 | 1011.9 |
| 20260505110559 | 52 | 227 | 0.0 | 2.0 | 0.00 | 0.06 | 0.06 | 96 | 1011.9 |
| 20260505110108 | 51 | 227 | 1.0 | 3.0 | 0.00 | 0.06 | 0.06 | 96 | 1012.0 |
| 20260505102059 | 51 | 0 | 0.0 | 2.0 | 0.00 | 0.06 | 0.06 | 95 | 1011.8 |
| 20260505101601 | 51 | 207 | 1.0 | 2.0 | 0.00 | 0.06 | 0.06 | 94 | 1011.6 |
| 20260505101059 | 51 | 0 | 0.0 | 2.0 | 0.01 | 0.06 | 0.06 | 94 | 1011.5 |
| 20260505100559 | 51 | 0 | 0.0 | 2.0 | 0.03 | 0.06 | 0.06 | 94 | 1011.6 |
| 20260505100059 | 51 | 207 | 1.0 | 2.0 | 0.04 | 0.06 | 0.06 | 94 | 1011.6 |
| 20260505095559 | 51 | 207 | 1.0 | 2.0 | 0.06 | 0.06 | 0.06 | 95 | 1011.6 |
| 20260505095058 | 51 | 0 | 0.0 | 3.0 | 0.06 | 0.06 | 0.06 | 94 | 1011.7 |
| 20260505094603 | 51 | 207 | 1.0 | 3.0 | 0.06 | 0.06 | 0.06 | 94 | 1011.6 |
| 20260505094059 | 51 | 206 | 2.0 | 3.0 | 0.06 | 0.06 | 0.06 | 93 | 1011.6 |
| 20260505093558 | 51 | 195 | 0.0 | 2.0 | 0.06 | 0.06 | 0.06 | 93 | 1011.4 |
| 20260505093102 | 51 | 0 | 1.0 | 2.0 | 0.06 | 0.06 | 0.06 | 92 | 1011.8 |
| 20260505092602 | 51 | 193 | 2.0 | 5.0 | 0.06 | 0.06 | 0.06 | 92 | 1011.9 |
| 20260505092058 | 51 | 198 | 0.0 | 5.0 | 0.06 | 0.06 | 0.06 | 92 | 1011.8 |
| 20260505091613 | 51 | 197 | 3.0 | 5.0 | 0.06 | 0.06 | 0.06 | 91 | 1011.6 |
| 20260505091058 | 52 | 247 | 1.0 | 3.0 | 0.05 | 0.05 | 0.05 | 89 | 1011.4 |
| 20260505090558 | 52 | 247 | 2.0 | 3.0 | 0.03 | 0.03 | 0.03 | 87 | 1011.6 |
| 20260505090059 | 52 | 178 | 1.0 | 2.0 | 0.00 | 0.00 | 0.00 | 85 | 1011.2 |
| 20260505085558 | 52 | 180 | 1.0 | 2.0 | 0.00 | 0.00 | 0.00 | 84 | 1011.5 |
| 20260505085059 | 52 | 0 | 0.0 | 2.0 | 0.00 | 0.00 | 0.00 | 85 | 1011.4 |
| 20260505084559 | 52 | 0 | 1.0 | 2.0 | 0.00 | 0.00 | 0.00 | 84 | 1011.4 |
| 20260505084100 | 52 | 0 | 1.0 | 3.0 | 0.00 | 0.00 | 0.00 | 84 | 1011.1 |
| 20260505083601 | 53 | 0 | 0.0 | 3.0 | 0.00 | 0.00 | 0.00 | 83 | 1011.0 |
| 20260505083100 | 53 | 186 | 2.0 | 3.0 | 0.00 | 0.00 | 0.00 | 83 | 1011.0 |
| 20260505082559 | 53 | 209 | 0.0 | 2.0 | 0.00 | 0.00 | 0.00 | 82 | 1011.0 |
| 20260505082100 | 53 | 209 | 0.0 | 3.0 | 0.00 | 0.00 | 0.00 | 83 | 1010.9 |
| 20260505081601 | 53 | 0 | 0.0 | 3.0 | 0.00 | 0.00 | 0.00 | 83 | 1010.9 |
| 20260505081100 | 53 | 210 | 2.0 | 3.0 | 0.00 | 0.00 | 0.00 | 83 | 1010.8 |
| 20260505080558 | 53 | 210 | 0.0 | 2.0 | 0.00 | 0.00 | 0.00 | 83 | 1010.8 |
| 20260505080107 | 52 | 210 | 1.0 | 3.0 | 0.00 | 0.00 | 0.00 | 84 | 1010.9 |
| 20260505075558 | 52 | 210 | 0.0 | 3.0 | 0.00 | 0.00 | 0.00 | 85 | 1010.9 |
| 20260505075059 | 52 | 210 | 1.0 | 3.0 | 0.00 | 0.00 | 0.00 | 84 | 1010.9 |
| 20260505074559 | 52 | 210 | 1.0 | 2.0 | 0.00 | 0.00 | 0.00 | 84 | 1010.9 |
| 20260505074059 | 52 | 210 | 1.0 | 2.0 | 0.00 | 0.00 | 0.00 | 84 | 1010.9 |
| 20260505073559 | 52 | 210 | 0.0 | 2.0 | 0.00 | 0.00 | 0.00 | 85 | 1010.9 |
| 20260505073104 | 52 | 0 | 1.0 | 2.0 | 0.00 | 0.00 | 0.00 | 85 | 1011.0 |
| 20260505072559 | 51 | 210 | 0.0 | 3.0 | 0.00 | 0.00 | 0.00 | 85 | 1010.9 |
| 20260505072059 | 51 | 210 | 1.0 | 3.0 | 0.00 | 0.00 | 0.00 | 86 | 1010.8 |
| 20260505071601 | 51 | 209 | 1.0 | 3.0 | 0.00 | 0.00 | 0.00 | 85 | 1010.9 |
| 20260505071100 | 51 | 0 | 0.0 | 0.0 | 0.00 | 0.00 | 0.00 | 86 | 1010.9 |
| 20260505070559 | 51 | 0 | 0.0 | 0.0 | 0.00 | 0.00 | 0.00 | 86 | 1010.9 |
| 20260505070058 | 51 | 0 | 0.0 | 0.0 | 0.00 | 0.00 | 0.00 | 86 | 1010.9 |
| 20260505065559 | 51 | 0 | 0.0 | 0.0 | 0.00 | 0.00 | 0.00 | 86 | 1010.9 |
| 20260505065059 | 51 | 0 | 0.0 | 0.0 | 0.00 | 0.00 | 0.00 | 85 | 1010.9 |
| 20260505064606 | 50 | 0 | 0.0 | 0.0 | 0.00 | 0.00 | 0.00 | 84 | 1011.0 |
| 20260505064059 | 50 | 0 | 0.0 | 2.0 | 0.00 | 0.00 | 0.00 | 83 | 1011.0 |
| 20260505063600 | 51 | 0 | 0.0 | 2.0 | 0.00 | 0.00 | 0.00 | 83 | 1011.0 |
| 20260505063114 | 51 | 237 | 0.0 | 2.0 | 0.00 | 0.00 | 0.00 | 83 | 1011.0 |
| 20260505062559 | 51 | 0 | 1.0 | 2.0 | 0.00 | 0.00 | 0.00 | 83 | 1011.0 |
| 20260505062058 | 51 | 237 | 0.0 | 1.0 | 0.00 | 0.00 | 0.00 | 82 | 1011.1 |
| 20260505061607 | 52 | 0 | 0.0 | 0.0 | 0.00 | 0.00 | 0.00 | 82 | 1011.0 |
| 20260505061059 | 52 | 0 | 0.0 | 0.0 | 0.00 | 0.00 | 0.00 | 82 | 1011.0 |
| 20260505060559 | 52 | 0 | 0.0 | 0.0 | 0.00 | 0.00 | 0.00 | 82 | 1011.0 |
| 20260505060059 | 52 | 0 | 0.0 | 0.0 | 0.00 | 0.00 | 0.00 | 82 | 1011.0 |
| 20260505055559 | 53 | 0 | 0.0 | 1.0 | 0.00 | 0.00 | 0.00 | 82 | 1010.9 |
| 20260505055101 | 53 | 0 | 0.0 | 1.0 | 0.00 | 0.00 | 0.00 | 82 | 1010.9 |
| 20260505054611 | 53 | 0 | 0.0 | 2.0 | 0.00 | 0.00 | 0.00 | 81 | 1011.0 |
| 20260505054103 | 53 | 0 | 0.0 | 2.0 | 0.00 | 0.00 | 0.00 | 80 | 1011.0 |
| 20260505053600 | 53 | 237 | 1.0 | 2.0 | 0.00 | 0.00 | 0.00 | 80 | 1011.0 |
| 20260505053103 | 53 | 0 | 0.0 | 2.0 | 0.00 | 0.00 | 0.00 | 81 | 1011.0 |
| 20260505052559 | 53 | 243 | 0.0 | 2.0 | 0.00 | 0.00 | 0.00 | 79 | 1011.0 |
| 20260505052059 | 53 | 0 | 0.0 | 0.0 | 0.00 | 0.00 | 0.00 | 77 | 1010.9 |
| 20260505051601 | 53 | 0 | 0.0 | 2.0 | 0.00 | 0.00 | 0.00 | 78 | 1011.0 |
| 20260505051059 | 54 | 0 | 0.0 | 2.0 | 0.00 | 0.00 | 0.00 | 77 | 1010.9 |
| 20260505050558 | 54 | 243 | 0.0 | 1.0 | 0.00 | 0.00 | 0.00 | 78 | 1011.0 |
| 20260505041600 | 60 | 173 | 0.0 | 2.0 | 0.00 | 0.00 | 0.00 | 63 | 1010.9 |
| 20260505041101 | 60 | 0 | 0.0 | 3.0 | 0.00 | 0.00 | 0.00 | 61 | 1010.8 |
| 20260505040602 | 60 | 173 | 0.0 | 3.0 | 0.00 | 0.00 | 0.00 | 62 | 1010.8 |
| 20260505040100 | 60 | 175 | 1.0 | 3.0 | 0.00 | 0.00 | 0.00 | 61 | 1010.8 |
| 20260505035559 | 60 | 0 | 0.0 | 4.0 | 0.00 | 0.00 | 0.00 | 60 | 1010.7 |
| 20260505035102 | 60 | 167 | 0.0 | 4.0 | 0.00 | 0.00 | 0.00 | 60 | 1010.7 |
| 20260505034601 | 60 | 213 | 1.0 | 3.0 | 0.00 | 0.00 | 0.00 | 61 | 1010.8 |
| 20260505034104 | 59 | 0 | 1.0 | 3.0 | 0.00 | 0.00 | 0.00 | 61 | 1010.7 |
| 20260505033602 | 59 | 181 | 1.0 | 3.0 | 0.00 | 0.00 | 0.00 | 64 | 1010.7 |
| 20260505033056 | 58 | 0 | 0.0 | 2.0 | 0.00 | 0.00 | 0.00 | 64 | 1010.7 |
| 20260505032559 | 59 | 0 | 0.0 | 2.0 | 0.00 | 0.00 | 0.00 | 64 | 1010.8 |
| 20260505032100 | 59 | 0 | 0.0 | 2.0 | 0.00 | 0.00 | 0.00 | 65 | 1010.8 |
| 20260505031607 | 58 | 159 | 0.0 | 2.0 | 0.00 | 0.00 | 0.00 | 64 | 1010.8 |
| 20260505031059 | 58 | 0 | 0.0 | 2.0 | 0.00 | 0.00 | 0.00 | 64 | 1010.9 |
| 20260505030559 | 57 | 159 | 0.0 | 2.0 | 0.00 | 0.00 | 0.00 | 66 | 1010.9 |
| 20260505030059 | 56 | 0 | 0.0 | 0.0 | 0.00 | 0.00 | 0.00 | 69 | 1010.9 |
| 20260505025559 | 56 | 0 | 0.0 | 0.0 | 0.00 | 0.00 | 0.00 | 69 | 1011.0 |
| 20260505025058 | 56 | 0 | 0.0 | 0.0 | 0.00 | 0.00 | 0.00 | 70 | 1010.9 |
| 20260505024606 | 55 | 0 | 0.0 | 0.0 | 0.00 | 0.00 | 0.00 | 71 | 1011.0 |
| 20260505024059 | 55 | 0 | 0.0 | 0.0 | 0.00 | 0.00 | 0.00 | 73 | 1011.0 |
| 20260505023600 | 55 | 0 | 0.0 | 0.0 | 0.00 | 0.00 | 0.00 | 73 | 1011.0 |
| 20260505023058 | 55 | 0 | 0.0 | 0.0 | 0.00 | 0.00 | 0.00 | 75 | 1011.1 |
| 20260505022559 | 55 | 0 | 0.0 | 0.0 | 0.00 | 0.00 | 0.00 | 74 | 1011.1 |
| 20260505022059 | 55 | 0 | 0.0 | 0.0 | 0.00 | 0.00 | 0.00 | 74 | 1011.2 |
| 20260505021601 | 55 | 0 | 0.0 | 0.0 | 0.00 | 0.00 | 0.00 | 74 | 1011.2 |
| 20260505021058 | 55 | 0 | 0.0 | 0.0 | 0.00 | 0.00 | 0.00 | 73 | 1011.1 |
| 20260505020558 | 55 | 0 | 0.0 | 0.0 | 0.00 | 0.00 | 0.00 | 73 | 1011.1 |
| 20260505020056 | 55 | 0 | 0.0 | 0.0 | 0.00 | 0.00 | 0.00 | 73 | 1011.2 |
| 20260505015559 | 55 | 0 | 0.0 | 0.0 | 0.00 | 0.00 | 0.00 | 73 | 1011.1 |
| 20260505015059 | 56 | 0 | 0.0 | 0.0 | 0.00 | 0.00 | 0.00 | 71 | 1011.0 |
| 20260505014610 | 56 | 0 | 0.0 | 2.0 | 0.00 | 0.00 | 0.00 | 72 | 1011.1 |
| 20260505014100 | 56 | 0 | 0.0 | 2.0 | 0.00 | 0.00 | 0.00 | 72 | 1011.1 |
| 20260505013559 | 56 | 0 | 0.0 | 2.0 | 0.00 | 0.00 | 0.00 | 72 | 1011.0 |
| 20260505013059 | 57 | 0 | 0.0 | 1.0 | 0.00 | 0.00 | 0.00 | 69 | 1010.9 |
| 20260505012600 | 57 | 0 | 0.0 | 0.0 | 0.00 | 0.00 | 0.00 | 69 | 1010.8 |
| 20260505012059 | 57 | 0 | 0.0 | 2.0 | 0.00 | 0.00 | 0.00 | 68 | 1010.8 |
| 20260505011607 | 58 | 0 | 0.0 | 2.0 | 0.00 | 0.00 | 0.00 | 67 | 1010.8 |
| 20260505011100 | 58 | 163 | 0.0 | 2.0 | 0.00 | 0.00 | 0.00 | 65 | 1010.7 |
| 20260505010558 | 59 | 163 | 0.0 | 0.0 | 0.00 | 0.00 | 0.00 | 65 | 1010.6 |
| 20260505010109 | 59 | 0 | 0.0 | 0.0 | 0.00 | 0.00 | 0.00 | 66 | 1010.6 |
| 20260505005600 | 60 | 0 | 0.0 | 0.0 | 0.00 | 0.00 | 0.00 | 64 | 1010.5 |
| 20260505005102 | 61 | 0 | 0.0 | 2.0 | 0.00 | 0.00 | 0.00 | 60 | 1010.4 |
| 20260505004602 | 61 | 0 | 0.0 | 2.0 | 0.00 | 0.00 | 0.00 | 64 | 1010.4 |
| 20260505004100 | 62 | 163 | 0.0 | 2.0 | 0.00 | 0.00 | 0.00 | 59 | 1010.4 |
| 20260505003559 | 63 | 162 | 1.0 | 2.0 | 0.00 | 0.00 | 0.00 | 53 | 1010.3 |
| 20260505003059 | 64 | 0 | 0.0 | 2.0 | 0.00 | 0.00 | 0.00 | 51 | 1010.3 |
| 20260505002600 | 65 | 162 | 0.0 | 2.0 | 0.00 | 0.00 | 0.00 | 51 | 1010.3 |
| 20260505002058 | 65 | 162 | 0.0 | 2.0 | 0.00 | 0.00 | 0.00 | 49 | 1010.4 |
| 20260505001559 | 66 | 162 | 0.0 | 2.0 | 0.00 | 0.00 | 0.00 | 49 | 1010.2 |
| 20260505001059 | 67 | 163 | 0.0 | 5.0 | 0.00 | 0.00 | 0.00 | 48 | 1010.2 |
| 20260505000558 | 67 | 163 | 2.0 | 6.0 | 0.00 | 0.00 | 0.00 | 47 | 1010.2 |
| 20260505000116 | 68 | 190 | 1.0 | 6.0 | 0.00 | 0.00 | 0.00 | 46 | 1010.1 |
| 20260504235601 | 68 | 169 | 3.0 | 6.0 | 0.00 | 0.00 | 0.00 | 44 | 1010.1 |
| 20260504235102 | 68 | 182 | 2.0 | 7.0 | 0.00 | 0.00 | 0.00 | 44 | 1010.0 |
| 20260504234559 | 69 | 157 | 3.0 | 9.0 | 0.00 | 0.00 | 0.00 | 43 | 1010.0 |
| 20260504234100 | 69 | 200 | 4.0 | 9.0 | 0.00 | 0.00 | 0.00 | 43 | 1010.0 |
| 20260504233558 | 69 | 184 | 4.0 | 11.0 | 0.00 | 0.00 | 0.00 | 43 | 1009.9 |
| 20260504233108 | 69 | 173 | 3.0 | 13.0 | 0.00 | 0.00 | 0.00 | 43 | 1009.8 |
| 20260504232600 | 70 | 165 | 5.0 | 13.0 | 0.00 | 0.00 | 0.00 | 42 | 1009.7 |
| 20260504232100 | 70 | 190 | 7.0 | 13.0 | 0.00 | 0.00 | 0.00 | 42 | 1009.7 |
| 20260504231609 | 70 | 180 | 5.0 | 13.0 | 0.00 | 0.00 | 0.00 | 42 | 1009.7 |
| 20260504231059 | 70 | 211 | 6.0 | 13.0 | 0.00 | 0.00 | 0.00 | 41 | 1009.6 |
| 20260504230559 | 70 | 169 | 6.0 | 13.0 | 0.00 | 0.00 | 0.00 | 42 | 1009.6 |
| 20260504230100 | 70 | 191 | 7.0 | 15.0 | 0.00 | 0.00 | 0.00 | 41 | 1009.6 |
| 20260504225559 | 70 | 184 | 6.0 | 15.0 | 0.00 | 0.00 | 0.00 | 42 | 1009.6 |
| 20260504225059 | 71 | 213 | 6.0 | 12.0 | 0.00 | 0.00 | 0.00 | 41 | 1009.6 |
| 20260504224609 | 71 | 168 | 5.0 | 14.0 | 0.00 | 0.00 | 0.00 | 42 | 1009.6 |
| 20260504224059 | 71 | 199 | 6.0 | 15.0 | 0.00 | 0.00 | 0.00 | 41 | 1009.6 |
| 20260504223559 | 71 | 188 | 8.0 | 15.0 | 0.00 | 0.00 | 0.00 | 41 | 1009.6 |
| 20260504223134 | 71 | 160 | 7.0 | 14.0 | 0.00 | 0.00 | 0.00 | 42 | 1009.6 |
| 20260504222559 | 71 | 134 | 6.0 | 14.0 | 0.00 | 0.00 | 0.00 | 41 | 1009.6 |
| 20260504222100 | 71 | 205 | 6.0 | 14.0 | 0.00 | 0.00 | 0.00 | 41 | 1009.7 |
| 20260504221558 | 71 | 167 | 6.0 | 17.0 | 0.00 | 0.00 | 0.00 | 41 | 1009.7 |
| 20260504221103 | 71 | 219 | 7.0 | 16.0 | 0.00 | 0.00 | 0.00 | 41 | 1009.8 |
| 20260504220600 | 71 | 180 | 7.0 | 15.0 | 0.00 | 0.00 | 0.00 | 40 | 1009.8 |
| 20260504220059 | 72 | 215 | 8.0 | 15.0 | 0.00 | 0.00 | 0.00 | 41 | 1009.7 |
| 20260504215559 | 72 | 184 | 5.0 | 15.0 | 0.00 | 0.00 | 0.00 | 40 | 1009.8 |
| 20260504215058 | 72 | 180 | 9.0 | 15.0 | 0.00 | 0.00 | 0.00 | 39 | 1009.8 |
| 20260504214558 | 73 | 202 | 6.0 | 12.0 | 0.00 | 0.00 | 0.00 | 39 | 1009.9 |
| 20260504214059 | 73 | 197 | 5.0 | 11.0 | 0.00 | 0.00 | 0.00 | 39 | 1009.8 |
| 20260504213559 | 73 | 209 | 4.0 | 11.0 | 0.00 | 0.00 | 0.00 | 39 | 1009.9 |
| 20260504213106 | 72 | 286 | 5.0 | 17.0 | 0.00 | 0.00 | 0.00 | 38 | 1010.0 |
| 20260504212559 | 72 | 210 | 6.0 | 17.0 | 0.00 | 0.00 | 0.00 | 38 | 1010.0 |
| 20260504212058 | 72 | 275 | 5.0 | 12.0 | 0.00 | 0.00 | 0.00 | 38 | 1010.0 |
| 20260504211601 | 72 | 193 | 4.0 | 13.0 | 0.00 | 0.00 | 0.00 | 39 | 1009.9 |
| 20260504211059 | 72 | 179 | 8.0 | 15.0 | 0.00 | 0.00 | 0.00 | 38 | 1009.8 |
| 20260504210601 | 72 | 156 | 10.0 | 15.0 | 0.00 | 0.00 | 0.00 | 38 | 1009.9 |
| 20260504210109 | 72 | 150 | 7.0 | 14.0 | 0.00 | 0.00 | 0.00 | 37 | 1009.9 |
| 20260504205603 | 73 | 227 | 6.0 | 13.0 | 0.00 | 0.00 | 0.00 | 37 | 1010.0 |
| 20260504205059 | 73 | 309 | 2.0 | 19.0 | 0.00 | 0.00 | 0.00 | 38 | 1010.1 |
| 20260504204601 | 73 | 257 | 6.0 | 19.0 | 0.00 | 0.00 | 0.00 | 38 | 1010.1 |
| 20260504204059 | 72 | 291 | 4.0 | 16.0 | 0.00 | 0.00 | 0.00 | 38 | 1010.2 |
| 20260504203559 | 72 | 221 | 6.0 | 16.0 | 0.00 | 0.00 | 0.00 | 39 | 1010.2 |
| 20260504203112 | 71 | 249 | 3.0 | 17.0 | 0.00 | 0.00 | 0.00 | 38 | 1010.4 |
| 20260504202559 | 72 | 227 | 5.0 | 17.0 | 0.00 | 0.00 | 0.00 | 38 | 1010.2 |
| 20260504202100 | 72 | 207 | 8.0 | 17.0 | 0.00 | 0.00 | 0.00 | 37 | 1010.4 |
| 20260504201609 | 73 | 216 | 4.0 | 17.0 | 0.00 | 0.00 | 0.00 | 37 | 1010.3 |
| 20260504201100 | 73 | 253 | 7.0 | 23.0 | 0.00 | 0.00 | 0.00 | 37 | 1010.2 |
| 20260504200559 | 72 | 158 | 2.0 | 23.0 | 0.00 | 0.00 | 0.00 | 38 | 1010.1 |
| 20260504200126 | 72 | 188 | 12.0 | 22.0 | 0.00 | 0.00 | 0.00 | 38 | 1010.2 |
| 20260504195559 | 72 | 145 | 6.0 | 15.0 | 0.00 | 0.00 | 0.00 | 37 | 1010.1 |
| 20260504195059 | 72 | 247 | 4.0 | 13.0 | 0.00 | 0.00 | 0.00 | 37 | 1010.3 |
| 20260504194603 | 72 | 213 | 8.0 | 13.0 | 0.00 | 0.00 | 0.00 | 37 | 1010.4 |
| 20260504194059 | 72 | 121 | 4.0 | 14.0 | 0.00 | 0.00 | 0.00 | 37 | 1010.5 |
| 20260504193559 | 72 | 208 | 6.0 | 14.0 | 0.00 | 0.00 | 0.00 | 37 | 1010.4 |
| 20260504193101 | 72 | 209 | 7.0 | 14.0 | 0.00 | 0.00 | 0.00 | 37 | 1010.4 |
| 20260504192559 | 72 | 225 | 2.0 | 11.0 | 0.00 | 0.00 | 0.00 | 37 | 1010.6 |
| 20260504192100 | 72 | 229 | 5.0 | 14.0 | 0.00 | 0.00 | 0.00 | 38 | 1010.7 |
| 20260504191603 | 72 | 260 | 5.0 | 14.0 | 0.00 | 0.00 | 0.00 | 37 | 1010.7 |
| 20260504191059 | 72 | 279 | 5.0 | 15.0 | 0.00 | 0.00 | 0.00 | 39 | 1010.8 |
| 20260504190600 | 71 | 191 | 2.0 | 15.0 | 0.00 | 0.00 | 0.00 | 37 | 1010.9 |
| 20260504190105 | 71 | 272 | 6.0 | 15.0 | 0.00 | 0.00 | 0.00 | 38 | 1011.0 |
| 20260504185600 | 71 | 204 | 4.0 | 10.0 | 0.00 | 0.00 | 0.00 | 37 | 1011.0 |
| 20260504185059 | 71 | 151 | 3.0 | 16.0 | 0.00 | 0.00 | 0.00 | 39 | 1011.1 |
| 20260504184600 | 70 | 208 | 8.0 | 16.0 | 0.00 | 0.00 | 0.00 | 38 | 1011.1 |
| 20260504184100 | 71 | 200 | 6.0 | 16.0 | 0.00 | 0.00 | 0.00 | 38 | 1011.2 |